Location: Newark
(39.6172°N, 96.8533°W)
Time: 13:24:44
(UTC+00:00)

Vanguard 2 Rocket - All Passes

Search period start: 17 February 2020 00:00
Search period end: 27 February 2020 00:00
Orbit: 554 x 3326 km, 32.9° (Epoch: 16 February)

Date Brightness Start Highest point End Pass type
(mag) Time Alt. Az. Time Alt. Az. Time Alt. Az.
17 Feb - 01:59:20 10° SSW 02:13:24 32° SSE 02:22:54 10° E visible
17 Feb - 04:15:02 10° WSW 04:28:33 50° S 04:36:18 10° E visible
17 Feb - 06:32:40 10° W 06:42:29 52° S 06:48:10 10° ESE visible
17 Feb - 08:49:47 10° W 08:54:53 23° SSW 08:58:36 10° SSE night (unlit)
18 Feb - 00:58:51 10° SSW 01:12:30 26° SSE 01:22:36 10° E visible
18 Feb - 03:13:06 10° SW 03:28:08 47° SSE 03:37:08 10° E visible
18 Feb - 05:30:44 10° WSW 05:42:44 57° S 05:49:26 10° ESE visible
18 Feb - 07:48:22 10° W 07:55:49 36° SSW 08:00:34 10° SE night (unlit)
18 Feb - 23:59:22 10° S 00:11:28 20° SE 00:21:18 10° ESE daylight
19 Feb - 02:11:24 10° SW 02:27:23 42° SSE 02:37:39 10° E visible
19 Feb - 04:28:31 10° WSW 04:42:37 58° S 04:50:33 10° E visible
19 Feb - 06:46:41 10° W 06:56:28 48° SSW 07:02:10 10° ESE visible
19 Feb - 09:04:44 10° WSW 09:08:28 16° SW 09:11:26 10° S night (unlit)
19 Feb - 23:01:45 10° SSE 23:10:23 14° SE 23:18:07 10° ESE daylight
20 Feb - 01:10:13 10° SSW 01:26:23 36° SSE 01:37:44 10° E visible
20 Feb - 03:26:15 10° WSW 03:42:11 56° S 03:51:27 10° E visible
20 Feb - 05:44:38 10° W 05:56:47 57° S 06:03:33 10° ESE visible
20 Feb - 08:02:42 10° W 08:09:31 27° SSW 08:14:05 10° SSE night (unlit)
21 Feb - 00:09:45 10° SSW 00:25:12 30° SSE 00:37:11 10° E visible
21 Feb - 02:24:09 10° SW 02:41:21 51° SSE 02:52:04 10° E visible
21 Feb - 04:42:16 10° WSW 04:56:41 61° S 05:04:44 10° ESE visible
21 Feb - 07:00:48 10° W 07:10:18 40° SSW 07:16:00 10° SE night (unlit)
21 Feb - 23:10:19 10° S 23:23:59 23° SE 23:35:40 10° E daylight
22 Feb - 01:22:27 10° SW 01:40:14 46° SSE 01:52:20 10° E visible
22 Feb - 03:39:46 10° WSW 03:56:12 62° S 04:05:40 10° E visible
22 Feb - 05:58:37 10° W 06:10:43 52° SSW 06:17:33 10° ESE visible
22 Feb - 08:17:29 10° W 08:22:59 19° SW 08:27:02 10° S night (unlit)
22 Feb - 22:12:34 10° SSE 22:22:51 16° SE 22:32:25 10° ESE daylight
23 Feb - 00:21:22 10° SSW 00:38:54 39° SSE 00:52:08 10° E visible
23 Feb - 02:37:22 10° WSW 02:55:19 60° S 03:06:20 10° E visible
23 Feb - 04:56:10 10° W 05:10:41 60° S 05:18:49 10° ESE visible
23 Feb - 07:15:04 10° W 07:23:56 31° SSW 07:29:31 10° SSE night (unlit)
23 Feb - 23:21:05 10° SSW 23:37:31 32° SE 23:51:16 10° E daylight
24 Feb - 01:35:18 10° SW 01:54:06 55° SSE 02:06:41 10° E visible
24 Feb - 03:53:31 10° WSW 04:10:13 65° S 04:19:48 10° ESE visible
24 Feb - 06:12:42 10° W 06:24:29 44° SSW 06:31:21 10° SE visible
24 Feb - 08:33:30 10° WSW 08:36:15 12° SW 08:38:36 10° SSW night (unlit)
24 Feb - 22:21:51 10° S 22:36:13 25° SE 22:49:24 10° E daylight
25 Feb - 00:33:47 10° SW 00:52:37 49° SSE 01:06:39 10° E visible
25 Feb - 02:50:56 10° WSW 03:09:18 65° S 03:20:31 10° E visible
25 Feb - 05:10:08 10° W 05:24:35 56° SSW 05:32:46 10° ESE visible
25 Feb - 07:29:42 10° W 07:37:19 23° SW 07:42:32 10° S night (unlit)
25 Feb - 21:24:14 10° S 21:35:07 18° SE 21:45:50 10° ESE daylight
25 Feb - 23:32:57 10° SSW 23:51:02 42° SSE 00:06:05 10° E daylight
26 Feb - 01:48:36 10° WSW 02:07:59 63° S 02:20:55 10° E visible
26 Feb - 04:07:25 10° W 04:24:11 63° S 04:33:53 10° ESE visible
26 Feb - 06:26:55 10° W 06:38:03 35° SSW 06:44:51 10° SSE visible
26 Feb - 20:32:50 10° SE 20:34:18 10° SE 20:35:46 10° SE daylight
26 Feb - 22:32:59 10° SSW 22:49:32 34° SE 23:04:48 10° E daylight
